Regional Weather Roundup
Issued by NWS

Home | Current Version | Previous Version | Text Only | Print | Product List | Glossary Off
Versions: 1 2 3 4 5 6 7 8 9 10 11 12 13 14 15 16 17 18 19 20 21 22 23 24 25 26 27 28 29 30 31 32 33 34 35 36 37 38 39 40 41 42 43 44 45 46 47 48 49 50

000
ASUS43 KMPX 010901
RWRMN
WEATHER ROUNDUP FOR MINNESOTA
NATIONAL WEATHER SERVICE TWIN CITIES/CHANHASSEN MN
400 AM CDT WED OCT 01 2014


NOTE: "FAIR" INDICATES FEW OR NO CLOUDS BELOW 12,000 FEET WITH NO
SIGNIFICANT WEATHER AND/OR OBSTRUCTIONS TO VISIBILITY. N/A MEANS
CURRENT SKY AND/OR WEATHER CONDITIONS ARE NOT AVAILABLE.

MNZ060>063-068>070-011000-
   Twin Cities Metro

CITY           SKY/WX    TMP DP  RH WIND       PRES   REMARKS
TWIN CITIES    MOCLDY    50  44  80 SE13G22   29.85F
ST PAUL        MOCLDY    51  45  79 SE15G22   29.87F
CRYSTAL        MOCLDY    52  44  74 SE16      29.83F
BLAINE         MOCLDY    52  46  82 SE14G23   29.84F
LAKEVILLE      MOCLDY    48  45  87 SE10      29.84F
EDEN PRAIRIE   MOCLDY    51  45  79 SE14      29.82F
SOUTH ST PAUL  MOCLDY    51  44  77 SE8       29.86F
LAKE ELMO      CLOUDY    50  45  81 SE9       29.88S
$$
MNZ001>005-007-008-013>017-022>024-027-028-011000-
   Northwest Minnesota

CITY           SKY/WX    TMP DP  RH WIND       PRES   REMARKS
BEMIDJI        CLOUDY    52  48  86 SE17      29.70F
HALLOCK        CLOUDY    61  54  77 SE23G30   29.47F
ROSEAU         CLOUDY    55  48  76 SE18G26   29.59F
WARROAD        CLOUDY    54  48  82 SE22G28   29.63F
THIEF RVR FALL CLOUDY    57  50  77 SE18      29.57S
CROOKSTON      CLOUDY    61  55  82 S20G26    29.55S
FOSSTON        MOCLDY    55  50  82 SE17G23   29.62S
DETROIT LAKES  CLOUDY    57  54  88 S17G23    29.66S
PARK RAPIDS    CLOUDY    52  48  86 SE18      29.71F
MAHNOMEN       CLOUDY    56  51  85 SE18G26   29.61F
$$
MNZ006-009>011-018-025>026-011000-
   North Central Minnesota

CITY           SKY/WX    TMP DP  RH WIND       PRES   REMARKS
BAUDETTE       MOCLDY    48  43  82 SE10      29.69F
FLAG ISLAND    CLOUDY    52  46  82 SE18G26   29.64F
INTL FALLS     MOCLDY    48  43  82 SE9       29.77F
WASKISH        CLOUDY    52  46  82 SE14G22   29.70F
BIG FORK       MOCLDY    50  45  81 SE9       29.79R
LONGVILLE      CLOUDY    50  46  87 SE8       29.76F
GRAND RAPIDS   CLOUDY    46  43  87 SE13G20   29.80S
CRANE LAKE     CLOUDY    46  43  87 CALM      29.83F
ORR            MOCLDY    46  41  81 SE7       29.77F
COOK           MOCLDY    48  43  81 E5        29.81F
WALKER         CLOUDY    52  47  84 S14G22    29.73F
$$
MNZ012-019>021-037-011000-
   Northeast Minnesota

CITY           SKY/WX    TMP DP  RH WIND       PRES   REMARKS
DULUTH         CLOUDY    48  43  82 SE13      29.88S
ELY            CLOUDY    46  43  87 SE5       29.87R
HIBBING        PTCLDY    48  43  82 SE9       29.84F
EVELETH        MOCLDY    46  43  87 SE5       29.85F
DULUTH HARBOR  CLOUDY    50  46  87 E9        29.91S
TWO HARBORS    MOCLDY    46  43  87 E6        29.89F
SILVER BAY     CLOUDY    45  45 100 NE5       29.90F
GRAND MARAIS     N/A     48  44  86 NE8       29.95F
G MARAIS ARPRT FOG       41  39  93 E5        29.94S VSB<1/4
$$
MNZ029>031-032-039>041-046>048-054>057-064-011000-
   West Central Minnesota

CITY           SKY/WX    TMP DP  RH WIND       PRES   REMARKS
FERGUS FALLS   MOCLDY    61  57  88 S18G24    29.67S
WHEATON        CLOUDY    57  55  94 SE13      29.68S
MORRIS         CLEAR     61  57  88 SE14      29.70R
ALEXANDRIA     CLOUDY    56  55  97 SE15      29.74F FOG
ELBOW LAKE     CLOUDY    59  57  91 S18       29.69R
WADENA         CLOUDY    54  48  82 SE14G20   29.72S
GLENWOOD       CLOUDY    55  55 100 SE10G20   29.74F FOG
APPLETON       CLOUDY    63  57  82 SE9       29.70S
BENSON         CLOUDY    59  57  94 S10       29.72F
ORTONVILLE     MOCLDY    61  57  88 SE7       29.69S
MADISON        PTCLDY    64  61  88 S9        29.70S
WILLMAR        CLOUDY    57  54  88 SE14G22   29.77S FOG
$$
MNZ033>034-036-042>043-049>051-058-059-011000-
   Central Minnesota

CITY           SKY/WX    TMP DP  RH WIND       PRES   REMARKS
ST CLOUD       CLOUDY    53  47  79 SE13      29.81R
SAUK CENTRE    CLOUDY    53  50  91 SE12      29.77S
PAYNESVILLE    CLOUDY    52  50  90 E16       29.78F
AITKIN         PTCLDY    52  45  76 SE8       29.79S
PINE RIVER     CLOUDY    52  46  82 SE12G17   29.81S
BRAINERD       CLOUDY    50  46  86 SE8       29.79F
STAPLES        CLOUDY    50  46  87 SE13G20   29.74F
LONG PRAIRIE   CLOUDY    52  48  87 SE14G20   29.76F
LITTLE FALLS   CLOUDY    50  45  81 SE10G16   29.79S
LITCHFIELD     CLOUDY    55  52  88 SE9G17    29.80S
BUFFALO        PTCLDY    51  46  80 SE7       29.83S
MAPLE LAKE     PTCLDY    53  49  86 SE8       29.82S
$$
MNZ037-044-045-052-053-011000-
   East Central Minnesota

CITY           SKY/WX    TMP DP  RH WIND       PRES   REMARKS
PRINCETON      PTCLDY    52  46  82 SE12      29.83S
MORA           MOCLDY    46  43  87 SE7       29.86F
CAMBRIDGE      MOCLDY    52  43  71 SE6       29.82F
RUSH CITY      CLOUDY    48  43  84 SE8G16    29.86F
MOOSE LAKE     CLOUDY    48  43  81 SE5       29.84F
HINCKLEY       PTSUNNY   48  45  87 SE7       29.86F
CLOQUET        CLOUDY    46  43  87 SE9G16    29.87S
MCGREGOR       CLOUDY    46  45  93 SE10      29.83F
$$
MNZ071>073-080-081-089-090-097-098-011000-
   Southwest Minnesota

CITY           SKY/WX    TMP DP  RH WIND       PRES   REMARKS
MONTEVIDEO     CLOUDY    61  59  94 S6        29.73F
GRANITE FALLS  CLOUDY    61  59  91 SE12G21   29.74F
CANBY          CLOUDY    64  59  86 S10       29.71F
MARSHALL       CLOUDY    63  57  82 S14G22    29.71F
REDWOOD FALLS  CLOUDY    59  56  89 SE13      29.75F
OLIVIA         CLOUDY    57  54  88 SE12G17   29.75F
PIPESTONE      CLOUDY    61  61 100 S14G20    29.73F FOG
WINDOM         CLOUDY    61  55  82 SE13      29.77F
WORTHINGTON    CLOUDY    59  55  88 S10       29.76F
JACKSON        CLOUDY    59  54  82 S14       29.79S
TRACY          CLOUDY    62  59  90 S14G20    29.73F
SLAYTON        CLOUDY    60  59  97 SE10      29.75F FOG
$$
MNZ065>067-074>077-082>085-091>093-011000-
   South Central Minnesota

CITY           SKY/WX    TMP DP  RH WIND       PRES   REMARKS
MANKATO        MOCLDY    54  45  71 SE12      29.81S
NEW ULM        CLOUDY    55  54  94 SE8       29.79F
ST JAMES       CLOUDY    57  55  94 SE6       29.79F FOG
FAIRMONT       CLOUDY    57  52  82 SE16      29.79S
GLENCOE        MOCLDY    53  46  78 SE6       29.81S
FARIBAULT      CLOUDY    52  46  82 SE14      29.83F
OWATONNA       CLOUDY    52  45  76 SE13G18   29.83F
WASECA         MOCLDY    50  43  76 SE14      29.84S
ALBERT LEA     CLOUDY    52  48  87 SE12      29.85R
$$
MNZ078>079-086>088-094>096-011000-
   Southeast Minnesota

CITY           SKY/WX    TMP DP  RH WIND       PRES   REMARKS
ROCHESTER      CLOUDY    48  44  86 SE16      29.89F
RED WING       MOCLDY    52  45  76 SE14G20   29.88F
STANTON        CLOUDY    51  44  78 SE8       29.84F
DODGE CENTER   CLOUDY    50  45  81 SE18      29.86F
WINONA         CLOUDY    50  45  81 SE9       29.94R
AUSTIN         LGT RAIN  48  46  93 SE12      29.86F
PRESTON        CLOUDY    47  43  85 SE10      29.91F
$$
ABBREVIATIONS USED IN REMARKS
   TC - TEMPERATURES IN CELSIUS
  WCI - WIND CHILL INDEX
   HX - HEAT INDEX
  VSB - VISIBILITY
$$


USA.gov is the U.S. government's official web portal to all federal, state and local government web resources and services.